EW2327 Weather Reports


Display with metric or nautical units.
time (UTC)temp
F
wind
direction
speed
MPH
gust
MPH
rain 1hr
in
rain 24hr
in
rain mn
in
humidity
%
barometer
mb
20260508080003 61 331 0.0 1.0 0.00 0.00 0.00 77 1011.0
20260508074503 61 331 0.0 2.0 0.00 0.00 0.00 77 1011.3
20260508073002 61 331 1.0 3.0 0.00 0.00 0.00 77 1011.3
20260508071503 61 331 0.0 3.0 0.00 0.00 0.00 77 1011.1
20260508070002 61 346 2.0 4.0 0.00 0.00 0.00 76 1011.0
20260508064559 61 349 1.0 3.0 0.00 0.00 0.00 76 1011.0
20260508063138 61 323 0.0 3.0 0.00 0.00 0.00 76 1011.7
20260508061556 61 315 1.0 2.0 0.00 0.00 0.00 76 1011.8
20260508060057 61 315 0.0 2.0 0.00 0.00 0.00 76 1012.0
20260508054555 61 315 0.0 3.0 0.00 0.00 0.00 76 1011.6
20260508053100 61 315 2.0 3.0 0.00 0.00 0.00 75 1012.1
20260508051617 61 316 1.0 4.0 0.00 0.00 0.00 75 1011.9
20260508050050 61 350 0.0 5.0 0.00 0.00 0.00 75 1011.8
20260508044549 61 321 2.0 5.0 0.00 0.00 0.00 75 1012.0
20260508043049 61 340 0.0 2.0 0.00 0.00 0.00 75 1011.4
20260508041549 62 328 0.0 1.0 0.00 0.00 0.00 74 1011.5
20260508040048 62 328 0.0 2.0 0.00 0.00 0.00 74 1011.7
20260508034549 62 327 0.0 1.0 0.00 0.00 0.00 74 1012.0
20260508033050 62 327 0.0 1.0 0.00 0.00 0.00 74 1012.5
20260508031547 62 327 0.0 1.0 0.00 0.00 0.00 74 1012.8
20260508030048 62 327 1.0 3.0 0.00 0.00 0.00 74 1012.9
20260508024546 62 327 0.0 2.0 0.00 0.00 0.00 73 1012.2
20260508023045 62 360 1.0 4.0 0.00 0.00 0.00 73 1011.5
20260508021551 63 325 1.0 6.0 0.00 0.00 0.00 73 1010.7
20260508020046 63 346 1.0 5.0 0.00 0.00 0.00 73 1010.4
20260508014545 63 36 1.0 5.0 0.00 0.00 0.00 73 1010.2
20260508013043 64 72 1.0 8.0 0.00 0.00 0.00 73 1010.3
20260508011549 64 355 0.0 5.0 0.00 0.00 0.00 73 1010.7
20260508010057 65 5 1.0 8.0 0.00 0.00 0.00 74 1011.1
20260508004541 65 312 2.0 6.0 0.00 0.00 0.00 73 1009.8
20260508003040 65 39 1.0 4.0 0.00 0.00 0.00 73 1010.6
20260508001539 66 28 1.0 4.0 0.00 0.00 0.00 73 1010.9
20260508000045 66 61 1.0 7.0 0.00 0.00 0.00 73 1011.7
20260507234539 67 63 2.0 8.0 0.00 0.00 0.00 73 1011.9
20260507233040 66 55 3.0 8.0 0.00 0.00 0.00 74 1012.0
20260507231535 66 339 2.0 8.0 0.00 0.00 0.00 75 1012.1
20260507230050 66 350 2.0 5.0 0.00 0.00 0.00 75 1012.0
20260507224536 66 334 2.0 6.0 0.00 0.00 0.00 75 1012.4
20260507223105 65 308 2.0 6.0 0.00 0.00 0.00 75 1012.4
20260507221532 65 300 3.0 8.0 0.00 0.00 0.00 76 1012.5
20260507220032 66 317 3.0 8.0 0.00 0.00 0.00 76 1012.8
20260507214530 65 328 3.0 8.0 0.00 0.00 0.00 77 1012.5
20260507213030 65 326 2.0 6.0 0.00 0.00 0.00 77 1012.7
20260507211530 65 319 2.0 8.0 0.00 0.00 0.00 77 1012.5
20260507210036 65 331 4.0 9.0 0.00 0.00 0.00 77 1012.8
20260507204533 65 340 4.0 14.0 0.00 0.00 0.00 78 1012.3
20260507203034 65 331 4.0 11.0 0.00 0.00 0.00 79 1012.3
20260507201524 65 351 5.0 11.0 0.00 0.00 0.00 79 1012.9
20260507200046 64 355 4.0 11.0 0.00 0.00 0.00 80 1013.1
20260507194523 64 360 3.0 14.0 0.00 0.00 0.00 81 1012.9
20260507193038 64 355 4.0 11.0 0.00 0.00 0.00 82 1013.2
20260507191520 63 311 4.0 10.0 0.00 0.00 0.00 83 1013.1
20260507190027 63 30 2.0 8.0 0.00 0.00 0.00 83 1013.9
20260507184516 63 16 1.0 10.0 0.00 0.00 0.00 83 1013.9
20260507183028 63 28 3.0 9.0 0.00 0.00 0.00 84 1014.3
20260507181513 62 346 4.0 13.0 0.00 0.00 0.00 84 1014.4
20260507180015 62 338 4.0 8.0 0.00 0.00 0.00 85 1014.2
20260507174513 61 360 4.0 9.0 0.00 0.00 0.00 86 1014.1
20260507173015 60 53 3.0 10.0 0.00 0.00 0.00 86 1014.1
20260507171508 60 323 5.0 11.0 0.00 0.00 0.00 86 1013.8
20260507170009 59 9 3.0 8.0 0.00 0.00 0.00 87 1014.3
20260507164508 59 326 3.0 10.0 0.00 0.00 0.00 87 1015.0
20260507163007 59 349 4.0 10.0 0.00 0.00 0.00 87 1014.7
20260507161509 59 338 5.0 12.0 0.00 0.00 0.00 87 1014.8
20260507160006 58 340 5.0 15.0 0.00 0.00 0.00 87 1014.6
20260507154505 58 5 5.0 12.0 0.00 0.00 0.00 87 1014.6
20260507153005 58 343 4.0 11.0 0.00 0.00 0.00 87 1014.5
20260507151505 58 330 5.0 10.0 0.00 0.00 0.00 87 1014.8
20260507150005 58 340 3.0 10.0 0.00 0.00 0.00 87 1014.7
20260507144503 58 323 3.0 10.0 0.00 0.00 0.00 87 1014.8
20260507143004 58 5 3.0 11.0 0.00 0.00 0.00 87 1014.9
20260507141502 58 340 4.0 12.0 0.00 0.00 0.00 87 1014.9
20260507140101 58 327 3.0 10.0 0.00 0.00 0.00 87 1015.2
20260507134608 58 335 4.0 9.0 0.00 0.00 0.00 87 1014.5
20260507133058 58 335 4.0 12.0 0.00 0.00 0.00 87 1014.6
20260507131555 58 337 4.0 11.0 0.00 0.00 0.00 87 1014.2
20260507130106 58 339 4.0 10.0 0.00 0.00 0.00 86 1013.8
20260507124615 58 344 4.0 11.0 0.00 0.00 0.00 86 1013.9
20260507123105 58 332 4.0 10.0 0.00 0.00 0.00 86 1013.6
20260507121558 58 322 4.0 12.0 0.00 0.00 0.00 86 1013.5
20260507120048 58 324 3.0 11.0 0.00 0.00 0.00 86 1013.4
20260507114550 58 338 3.0 14.0 0.00 0.00 0.00 86 1012.9
20260507113045 59 329 5.0 12.0 0.00 0.00 0.00 86 1012.8
20260507111542 59 335 5.0 12.0 0.00 0.00 0.00 85 1013.0
20260507110040 59 28 4.0 13.0 0.00 0.00 0.00 85 1012.9
20260507104538 59 340 5.0 11.0 0.00 0.00 0.00 85 1012.6
20260507103035 59 326 2.0 10.0 0.00 0.00 0.00 85 1012.5
20260507101540 59 325 2.0 10.0 0.00 0.00 0.00 85 1012.2
20260507100046 59 13 4.0 8.0 0.00 0.00 0.00 85 1012.0
20260507094531 59 309 3.0 6.0 0.00 0.00 0.00 85 1012.2
20260507093028 60 330 4.0 10.0 0.00 0.00 0.00 85 1012.2
20260507091529 60 355 3.0 6.0 0.00 0.00 0.00 84 1011.8
20260507090027 60 323 3.0 6.0 0.00 0.00 0.00 84 1011.9
20260507084525 60 333 2.0 6.0 0.00 0.00 0.00 84 1011.8
20260507083026 60 330 1.0 5.0 0.00 0.00 0.00 84 1011.6
20260507081524 60 321 1.0 4.0 0.00 0.00 0.00 84 1011.8